Time,TemperatureF,DewpointF,PressureIn,WindDirection,WindDirectionDegrees,WindSpeedMPH,WindSpeedGustMPH,Humidity,HourlyPrecipIn,Conditions,Clouds,dailyrainin,SoftwareType,DateUTC
2013-01-12 00:02:00,11.3,-99.9,24.92,NW,311,2.0,4.0,-999,0.00,,,-99.99,FreeWX 2.04,2013-01-12 07:02:00,
2013-01-12 00:07:00,11.3,-99.9,24.92,NW,311,2.0,3.1,-999,0.00,,,-99.99,FreeWX 2.04,2013-01-12 07:07:00,
2013-01-12 00:12:00,11.3,-99.9,24.92,NW,310,1.0,4.5,-999,0.00,,,-99.99,FreeWX 2.04,2013-01-12 07:12:00,
2013-01-12 00:17:00,10.6,-99.9,24.92,NW,310,3.0,6.7,-999,0.00,,,-99.99,FreeWX 2.04,2013-01-12 07:17:00,
2013-01-12 00:22:00,10.0,-99.9,24.92,WNW,297,3.0,6.9,-999,0.00,,,-99.99,FreeWX 2.04,2013-01-12 07:22:00,
2013-01-12 00:27:00,10.4,-99.9,24.92,North,-999,0.0,0.0,-999,0.00,,,-99.99,FreeWX 2.04,2013-01-12 07:27:00,
2013-01-12 00:33:00,10.9,-99.9,24.92,WNW,282,1.0,4.0,-999,0.00,,,-99.99,FreeWX 2.04,2013-01-12 07:33:00,
2013-01-12 00:38:00,11.7,-99.9,24.92,WNW,288,3.0,7.8,-999,0.00,,,-99.99,FreeWX 2.04,2013-01-12 07:38:00,
2013-01-12 00:43:00,11.3,-99.9,24.92,NW,308,4.0,6.3,-999,0.00,,,-99.99,FreeWX 2.04,2013-01-12 07:43:00,
2013-01-12 00:48:00,11.1,-99.9,24.92,NW,322,3.0,3.6,-999,0.00,,,-99.99,FreeWX 2.04,2013-01-12 07:48:00,
2013-01-12 00:53:00,10.9,-99.9,24.92,NW,322,3.0,4.5,-999,0.00,,,-99.99,FreeWX 2.04,2013-01-12 07:53:00,
2013-01-12 00:58:00,10.2,-99.9,24.92,NW,322,2.0,3.6,-999,0.00,,,-99.99,FreeWX 2.04,2013-01-12 07:58:00,
2013-01-12 01:03:00,10.8,-99.9,24.92,NW,322,2.0,4.0,-999,0.00,,,-99.99,FreeWX 2.04,2013-01-12 08:03:00,
2013-01-12 01:08:00,10.8,-99.9,24.92,NW,322,2.0,4.9,-999,0.00,,,-99.99,FreeWX 2.04,2013-01-12 08:08:00,
2013-01-12 01:13:00,10.8,-99.9,24.92,NW,322,2.0,4.5,-999,0.00,,,-99.99,FreeWX 2.04,2013-01-12 08:13:00,
2013-01-12 01:18:00,10.4,-99.9,24.92,NW,322,2.0,5.8,-999,0.00,,,-99.99,FreeWX 2.04,2013-01-12 08:18:00,
2013-01-12 01:23:00,9.3,-99.9,24.92,NW,322,1.0,3.6,-999,0.00,,,-99.99,FreeWX 2.04,2013-01-12 08:23:00,
2013-01-12 01:28:00,8.8,-99.9,24.92,NW,322,2.0,4.0,-999,0.00,,,-99.99,FreeWX 2.04,2013-01-12 08:28:00,
2013-01-12 01:33:00,8.6,-99.9,24.92,NW,322,3.0,4.5,-999,0.00,,,-99.99,FreeWX 2.04,2013-01-12 08:33:00,
2013-01-12 01:38:00,7.5,-99.9,24.92,NW,322,2.0,4.5,-999,0.00,,,-99.99,FreeWX 2.04,2013-01-12 08:38:00,
2013-01-12 01:43:00,7.0,-99.9,24.92,North,-999,0.0,0.0,-999,0.00,,,-99.99,FreeWX 2.04,2013-01-12 08:43:00,
2013-01-12 01:48:00,7.0,-99.9,24.92,North,-999,0.0,3.1,-999,0.00,,,-99.99,FreeWX 2.04,2013-01-12 08:48:00,
2013-01-12 01:53:00,7.0,-99.9,24.92,North,-999,0.0,0.0,-999,0.00,,,-99.99,FreeWX 2.04,2013-01-12 08:53:00,
2013-01-12 01:58:00,7.7,-99.9,24.92,NW,322,1.0,3.6,-999,0.00,,,-99.99,FreeWX 2.04,2013-01-12 08:58:00,
2013-01-12 02:03:00,8.2,-99.9,24.92,NW,322,2.0,4.0,-999,0.00,,,-99.99,FreeWX 2.04,2013-01-12 09:03:00,
2013-01-12 02:08:00,7.9,-99.9,24.92,NW,322,2.0,4.5,-999,0.00,,,-99.99,FreeWX 2.04,2013-01-12 09:08:00,
2013-01-12 02:13:00,7.2,-99.9,24.92,NW,322,3.0,4.9,-999,0.00,,,-99.99,FreeWX 2.04,2013-01-12 09:13:00,
2013-01-12 02:18:00,5.9,-99.9,24.95,NW,322,2.0,3.6,-999,0.00,,,-99.99,FreeWX 2.04,2013-01-12 09:18:00,
2013-01-12 02:23:00,5.5,-99.9,24.95,NW,322,1.0,4.0,-999,0.00,,,-99.99,FreeWX 2.04,2013-01-12 09:23:00,
2013-01-12 02:28:00,5.2,-99.9,24.95,NW,322,2.0,4.0,-999,0.00,,,-99.99,FreeWX 2.04,2013-01-12 09:28:00,
2013-01-12 02:33:00,6.1,-99.9,24.92,NW,322,3.0,4.5,-999,0.00,,,-99.99,FreeWX 2.04,2013-01-12 09:33:00,
2013-01-12 02:38:00,6.1,-99.9,24.92,NW,322,1.0,2.7,-999,0.00,,,-99.99,FreeWX 2.04,2013-01-12 09:38:00,
2013-01-12 02:43:00,5.9,-99.9,24.92,North,-999,0.0,0.0,-999,0.00,,,-99.99,FreeWX 2.04,2013-01-12 09:43:00,
2013-01-12 02:48:00,5.9,-99.9,24.92,North,-999,0.0,0.0,-999,0.00,,,-99.99,FreeWX 2.04,2013-01-12 09:48:00,
2013-01-12 02:53:00,5.9,-99.9,24.92,North,-999,0.0,0.0,-999,0.00,,,-99.99,FreeWX 2.04,2013-01-12 09:53:00,
2013-01-12 02:58:00,6.1,-99.9,24.92,North,-999,0.0,0.0,-999,0.00,,,-99.99,FreeWX 2.04,2013-01-12 09:58:00,
2013-01-12 03:03:00,5.7,-99.9,24.92,North,-999,0.0,0.0,-999,0.00,,,-99.99,FreeWX 2.04,2013-01-12 10:03:00,
2013-01-12 03:08:00,5.7,-99.9,24.92,North,-999,0.0,0.0,-999,0.00,,,-99.99,FreeWX 2.04,2013-01-12 10:08:00,
2013-01-12 03:13:00,5.0,-99.9,24.92,North,-999,0.0,0.0,-999,0.00,,,-99.99,FreeWX 2.04,2013-01-12 10:13:00,
2013-01-12 03:18:00,5.2,-99.9,24.92,North,-999,0.0,0.0,-999,0.00,,,-99.99,FreeWX 2.04,2013-01-12 10:18:00,
2013-01-12 03:23:00,5.0,-99.9,24.92,North,-999,0.0,0.0,-999,0.00,,,-99.99,FreeWX 2.04,2013-01-12 10:23:00,
2013-01-12 03:28:00,5.0,-99.9,24.92,North,-999,0.0,0.0,-999,0.00,,,-99.99,FreeWX 2.04,2013-01-12 10:28:00,
2013-01-12 03:33:00,4.8,-99.9,24.92,North,-999,0.0,0.0,-999,0.00,,,-99.99,FreeWX 2.04,2013-01-12 10:33:00,
2013-01-12 03:38:00,4.3,-99.9,24.92,North,-999,0.0,0.0,-999,0.00,,,-99.99,FreeWX 2.04,2013-01-12 10:38:00,
2013-01-12 03:43:00,3.9,-99.9,24.92,North,-999,0.0,0.0,-999,0.00,,,-99.99,FreeWX 2.04,2013-01-12 10:43:00,
2013-01-12 03:48:00,3.7,-99.9,24.92,North,-999,0.0,0.0,-999,0.00,,,-99.99,FreeWX 2.04,2013-01-12 10:48:00,
2013-01-12 03:53:00,3.6,-99.9,24.92,North,-999,0.0,0.0,-999,0.00,,,-99.99,FreeWX 2.04,2013-01-12 10:53:00,
2013-01-12 03:58:00,3.6,-99.9,24.92,North,-999,0.0,0.0,-999,0.00,,,-99.99,FreeWX 2.04,2013-01-12 10:58:00,
2013-01-12 04:03:00,3.7,-99.9,24.92,North,-999,0.0,0.0,-999,0.00,,,-99.99,FreeWX 2.04,2013-01-12 11:03:00,
2013-01-12 04:08:00,4.1,-99.9,24.92,North,-999,0.0,0.0,-999,0.00,,,-99.99,FreeWX 2.04,2013-01-12 11:08:00,
2013-01-12 04:13:00,4.8,-99.9,24.92,North,-999,0.0,0.0,-999,0.00,,,-99.99,FreeWX 2.04,2013-01-12 11:13:00,
2013-01-12 04:18:00,2.8,-99.9,24.92,North,-999,0.0,4.9,-999,0.00,,,-99.99,FreeWX 2.04,2013-01-12 11:18:00,
2013-01-12 04:23:00,3.2,-99.9,24.92,NW,322,3.0,6.7,-999,0.00,,,-99.99,FreeWX 2.04,2013-01-12 11:23:00,
2013-01-12 04:28:00,4.1,-99.9,24.92,NW,322,5.0,6.7,-999,0.00,,,-99.99,FreeWX 2.04,2013-01-12 11:28:00,
2013-01-12 04:33:00,3.9,-99.9,24.92,NW,322,4.0,5.4,-999,0.00,,,-99.99,FreeWX 2.04,2013-01-12 11:33:00,
2013-01-12 04:38:00,2.8,-99.9,24.92,NW,322,3.0,5.4,-999,0.00,,,-99.99,FreeWX 2.04,2013-01-12 11:38:00,
2013-01-12 04:43:00,2.8,-99.9,24.92,NW,322,3.0,4.5,-999,0.00,,,-99.99,FreeWX 2.04,2013-01-12 11:43:00,
2013-01-12 04:48:00,2.8,-99.9,24.92,NW,322,1.0,4.0,-999,0.00,,,-99.99,FreeWX 2.04,2013-01-12 11:48:00,
2013-01-12 04:53:00,2.8,-99.9,24.92,North,-999,0.0,0.0,-999,0.00,,,-99.99,FreeWX 2.04,2013-01-12 11:53:00,
2013-01-12 04:58:00,4.3,-99.9,24.92,North,-999,0.0,0.0,-999,0.00,,,-99.99,FreeWX 2.04,2013-01-12 11:58:00,
2013-01-12 05:04:00,5.0,-99.9,24.92,North,-999,0.0,3.1,-999,0.00,,,-99.99,FreeWX 2.04,2013-01-12 12:04:00,
2013-01-12 05:09:00,5.4,-99.9,24.92,North,-999,0.0,4.5,-999,0.00,,,-99.99,FreeWX 2.04,2013-01-12 12:09:00,
2013-01-12 05:14:00,5.4,-99.9,24.92,NW,322,1.0,4.5,-999,0.00,,,-99.99,FreeWX 2.04,2013-01-12 12:14:00,
2013-01-12 05:19:00,5.0,-99.9,24.92,North,-999,0.0,0.0,-999,0.00,,,-99.99,FreeWX 2.04,2013-01-12 12:19:00,
2013-01-12 05:24:00,4.1,-99.9,24.92,North,-999,0.0,6.7,-999,0.00,,,-99.99,FreeWX 2.04,2013-01-12 12:24:00,
2013-01-12 05:29:00,3.6,-99.9,24.92,WNW,299,5.0,9.6,-999,0.00,,,-99.99,FreeWX 2.04,2013-01-12 12:29:00,
2013-01-12 05:34:00,3.2,-99.9,24.92,West,274,7.0,8.7,-999,0.00,,,-99.99,FreeWX 2.04,2013-01-12 12:34:00,
2013-01-12 05:39:00,2.8,-99.9,24.92,West,271,6.0,7.8,-999,0.00,,,-99.99,FreeWX 2.04,2013-01-12 12:39:00,
2013-01-12 05:44:00,1.6,-99.9,24.92,West,275,4.0,4.9,-999,0.00,,,-99.99,FreeWX 2.04,2013-01-12 12:44:00,
2013-01-12 05:49:00,0.7,-99.9,24.92,West,279,1.0,3.6,-999,0.00,,,-99.99,FreeWX 2.04,2013-01-12 12:49:00,
2013-01-12 05:59:00,0.3,-99.9,24.92,North,-999,0.0,0.0,-999,0.00,,,-99.99,FreeWX 2.04,2013-01-12 12:59:00,
2013-01-12 06:04:00,0.3,-99.9,24.95,North,-999,0.0,0.0,-999,0.00,,,-99.99,FreeWX 2.04,2013-01-12 13:04:00,
2013-01-12 06:09:00,0.1,-99.9,24.95,North,-999,0.0,0.0,-999,0.00,,,-99.99,FreeWX 2.04,2013-01-12 13:09:00,
2013-01-12 06:19:00,0.3,-99.9,24.95,North,-999,0.0,0.0,-999,0.00,,,-99.99,FreeWX 2.04,2013-01-12 13:19:00,
2013-01-12 06:24:00,1.2,-99.9,24.95,North,-999,0.0,0.0,-999,0.00,,,-99.99,FreeWX 2.04,2013-01-12 13:24:00,
2013-01-12 06:29:00,2.3,-99.9,24.95,North,-999,0.0,3.1,-999,0.00,,,-99.99,FreeWX 2.04,2013-01-12 13:29:00,
2013-01-12 06:34:00,4.1,-99.9,24.95,West,279,1.0,4.0,-999,0.00,,,-99.99,FreeWX 2.04,2013-01-12 13:34:00,
2013-01-12 06:39:00,4.5,-99.9,24.95,West,279,1.0,0.0,-999,0.00,,,-99.99,FreeWX 2.04,2013-01-12 13:39:00,
2013-01-12 06:44:00,4.5,-99.9,24.95,North,-999,0.0,0.0,-999,0.00,,,-99.99,FreeWX 2.04,2013-01-12 13:44:00,
2013-01-12 06:49:00,3.7,-99.9,24.95,North,-999,0.0,3.1,-999,0.00,,,-99.99,FreeWX 2.04,2013-01-12 13:49:00,
2013-01-12 06:54:00,2.8,-99.9,24.95,North,-999,0.0,4.0,-999,0.00,,,-99.99,FreeWX 2.04,2013-01-12 13:54:00,
2013-01-12 06:59:00,3.2,-99.9,24.95,North,-999,0.0,0.0,-999,0.00,,,-99.99,FreeWX 2.04,2013-01-12 13:59:00,
2013-01-12 07:04:00,3.2,-99.9,24.95,North,-999,0.0,4.5,-999,0.00,,,-99.99,FreeWX 2.04,2013-01-12 14:04:00,
2013-01-12 07:09:00,3.2,-99.9,24.95,West,279,2.0,5.4,-999,0.00,,,-99.99,FreeWX 2.04,2013-01-12 14:09:00,
2013-01-12 07:14:00,2.7,-99.9,24.95,West,279,2.0,4.0,-999,0.00,,,-99.99,FreeWX 2.04,2013-01-12 14:14:00,
2013-01-12 07:19:00,2.8,-99.9,24.95,North,-999,0.0,0.0,-999,0.00,,,-99.99,FreeWX 2.04,2013-01-12 14:19:00,
2013-01-12 07:24:00,2.1,-99.9,24.95,North,-999,0.0,0.0,-999,0.00,,,-99.99,FreeWX 2.04,2013-01-12 14:24:00,
2013-01-12 07:29:00,2.1,-99.9,24.95,North,-999,0.0,0.0,-999,0.00,,,-99.99,FreeWX 2.04,2013-01-12 14:29:00,
2013-01-12 07:34:00,3.4,-99.9,24.98,North,-999,0.0,4.0,-999,0.00,,,-99.99,FreeWX 2.04,2013-01-12 14:34:00,
2013-01-12 07:39:00,3.9,-99.9,24.98,West,279,2.0,5.8,-999,0.00,,,-99.99,FreeWX 2.04,2013-01-12 14:39:00,
2013-01-12 07:44:00,3.9,-99.9,24.98,West,280,4.0,5.4,-999,0.00,,,-99.99,FreeWX 2.04,2013-01-12 14:44:00,
2013-01-12 07:49:00,3.2,-99.9,24.98,West,281,2.0,0.0,-999,0.00,,,-99.99,FreeWX 2.04,2013-01-12 14:49:00,
2013-01-12 07:54:00,3.7,-99.9,24.98,North,-999,0.0,0.0,-999,0.00,,,-99.99,FreeWX 2.04,2013-01-12 14:54:00,
2013-01-12 07:59:00,3.0,-99.9,24.98,North,-999,0.0,0.0,-999,0.00,,,-99.99,FreeWX 2.04,2013-01-12 14:59:00,
2013-01-12 08:04:00,1.2,-99.9,24.98,North,-999,0.0,0.0,-999,0.00,,,-99.99,FreeWX 2.04,2013-01-12 15:04:00,
2013-01-12 08:09:00,1.6,-99.9,24.98,North,-999,0.0,0.0,-999,0.00,,,-99.99,FreeWX 2.04,2013-01-12 15:09:00,
2013-01-12 08:14:00,1.9,-99.9,24.98,North,-999,0.0,0.0,-999,0.00,,,-99.99,FreeWX 2.04,2013-01-12 15:14:00,
2013-01-12 08:19:00,4.3,-99.9,24.98,West,281,1.0,4.9,-999,0.00,,,-99.99,FreeWX 2.04,2013-01-12 15:19:00,
2013-01-12 08:24:00,5.4,-99.9,24.98,West,281,2.0,4.9,-999,0.00,,,-99.99,FreeWX 2.04,2013-01-12 15:24:00,
2013-01-12 08:54:00,21.2,-99.9,25.01,West,281,2.0,3.6,-999,0.00,,,-99.99,FreeWX 2.04,2013-01-12 15:54:00,
2013-01-12 08:59:00,21.2,-99.9,25.01,West,281,1.0,5.4,-999,0.00,,,-99.99,FreeWX 2.04,2013-01-12 15:59:00,
2013-01-12 09:04:00,21.2,-99.9,25.01,West,281,3.0,6.3,-999,0.00,,,-99.99,FreeWX 2.04,2013-01-12 16:04:00,
2013-01-12 09:50:00,21.2,-99.9,25.01,North,-999,0.0,0.0,-999,0.00,,,-99.99,FreeWX 2.04,2013-01-12 16:50:00,
2013-01-12 10:00:00,21.2,-99.9,25.01,West,281,2.0,4.9,-999,0.00,,,-99.99,FreeWX 2.04,2013-01-12 17:00:00,
2013-01-12 10:15:00,21.2,-99.9,25.01,West,281,4.0,5.4,-999,0.00,,,-99.99,FreeWX 2.04,2013-01-12 17:15:00,
2013-01-12 10:25:00,21.2,-99.9,25.01,West,281,2.0,3.6,-999,0.00,,,-99.99,FreeWX 2.04,2013-01-12 17:25:00,
2013-01-12 10:35:00,21.2,-99.9,25.01,West,281,1.0,4.5,-999,0.00,,,-99.99,FreeWX 2.04,2013-01-12 17:35:00,
2013-01-12 11:15:00,14.2,-99.9,24.98,West,280,2.0,3.6,-999,0.00,,,-99.99,FreeWX 2.04,2013-01-12 18:15:00,
2013-01-12 11:20:00,15.8,-2.2,24.98,West,278,2.0,3.6,44,0.00,,,-99.99,FreeWX 2.04,2013-01-12 18:20:00,
2013-01-12 11:35:00,16.0,-99.9,24.98,West,280,1.0,4.5,-999,0.00,,,-99.99,FreeWX 2.04,2013-01-12 18:35:00,
2013-01-12 11:40:00,15.8,-99.9,24.98,West,281,2.0,4.0,-999,0.00,,,-99.99,FreeWX 2.04,2013-01-12 18:40:00,
2013-01-12 11:50:00,17.4,-2.7,24.98,West,281,1.0,3.1,40,0.00,,,-99.99,FreeWX 2.04,2013-01-12 18:50:00,
2013-01-12 11:55:00,18.0,-3.3,24.98,North,-999,0.0,4.0,38,0.00,,,-99.99,FreeWX 2.04,2013-01-12 18:55:00,
2013-01-12 12:00:00,18.9,-3.1,24.98,West,280,1.0,4.0,37,0.00,,,-99.99,FreeWX 2.04,2013-01-12 19:00:00,
2013-01-12 12:05:00,18.3,-3.5,24.98,West,280,1.0,3.6,37,0.00,,,-99.99,FreeWX 2.04,2013-01-12 19:05:00,
2013-01-12 12:10:00,17.6,-4.2,24.98,West,281,1.0,3.6,37,0.00,,,-99.99,FreeWX 2.04,2013-01-12 19:10:00,
2013-01-12 12:15:00,17.2,-4.5,24.98,West,280,2.0,4.0,37,0.00,,,-99.99,FreeWX 2.04,2013-01-12 19:15:00,
2013-01-12 12:20:00,16.3,-4.7,24.98,West,280,3.0,5.4,38,0.00,,,-99.99,FreeWX 2.04,2013-01-12 19:20:00,
2013-01-12 12:25:00,16.9,-4.9,24.98,West,280,3.0,4.5,37,0.00,,,-99.99,FreeWX 2.04,2013-01-12 19:25:00,
2013-01-12 12:35:00,14.4,-2.2,24.95,WSW,244,5.0,8.7,47,0.00,,,-99.99,FreeWX 2.04,2013-01-12 19:35:00,
2013-01-12 12:40:00,13.5,-99.9,24.95,SSW,208,6.0,9.2,-999,0.00,,,-99.99,FreeWX 2.04,2013-01-12 19:40:00,
2013-01-12 12:45:00,12.7,-99.9,24.95,South,183,6.0,6.9,-999,0.00,,,-99.99,FreeWX 2.04,2013-01-12 19:45:00,
2013-01-12 12:50:00,11.7,-99.9,24.95,South,178,6.0,7.8,-999,0.00,,,-99.99,FreeWX 2.04,2013-01-12 19:50:00,
2013-01-12 12:55:00,11.5,-99.9,24.95,South,179,6.0,7.4,-999,0.00,,,-99.99,FreeWX 2.04,2013-01-12 19:55:00,
2013-01-12 13:00:00,11.5,-99.9,24.95,South,177,6.0,6.7,-999,0.00,,,-99.99,FreeWX 2.04,2013-01-12 20:00:00,
2013-01-12 13:05:00,11.7,-99.9,24.95,South,176,5.0,5.8,-999,0.00,,,-99.99,FreeWX 2.04,2013-01-12 20:05:00,
2013-01-12 13:10:00,11.7,-99.9,24.95,South,175,5.0,5.8,-999,0.00,,,-99.99,FreeWX 2.04,2013-01-12 20:10:00,
2013-01-12 13:15:00,12.2,-99.9,24.95,South,174,4.0,5.8,-999,0.00,,,-99.99,FreeWX 2.04,2013-01-12 20:15:00,
2013-01-12 13:20:00,12.7,-99.9,24.95,South,175,4.0,5.4,-999,0.00,,,-99.99,FreeWX 2.04,2013-01-12 20:20:00,
2013-01-12 13:25:00,21.2,-99.9,24.95,South,179,4.0,5.8,-999,0.00,,,-99.99,FreeWX 2.04,2013-01-12 20:25:00,
2013-01-12 13:30:00,13.3,-99.9,24.95,South,183,4.0,6.3,-999,0.00,,,-99.99,FreeWX 2.04,2013-01-12 20:30:00,
2013-01-12 13:35:00,14.0,-99.9,24.95,South,171,4.0,6.3,-999,0.00,,,-99.99,FreeWX 2.04,2013-01-12 20:35:00,
2013-01-12 13:40:00,14.9,-2.0,24.95,SSE,162,3.0,5.4,46,0.00,,,-99.99,FreeWX 2.04,2013-01-12 20:40:00,
2013-01-12 13:45:00,15.6,-1.8,24.95,SSE,161,2.0,4.5,45,0.00,,,-99.99,FreeWX 2.04,2013-01-12 20:45:00,
2013-01-12 13:50:00,16.2,-1.5,24.95,SSE,162,1.0,4.0,45,0.00,,,-99.99,FreeWX 2.04,2013-01-12 20:50:00,
2013-01-12 13:55:00,16.5,-1.5,24.95,North,-999,0.0,2.7,44,0.00,,,-99.99,FreeWX 2.04,2013-01-12 20:55:00,
2013-01-12 14:00:00,16.3,-1.7,24.95,SSE,161,1.0,3.1,44,0.00,,,-99.99,FreeWX 2.04,2013-01-12 21:00:00,
2013-01-12 14:05:00,17.2,-0.9,24.95,SSE,161,1.0,3.6,44,0.00,,,-99.99,FreeWX 2.04,2013-01-12 21:05:00,
2013-01-12 14:10:00,18.3,-0.4,24.95,North,-999,0.0,2.7,43,0.00,,,-99.99,FreeWX 2.04,2013-01-12 21:10:00,
2013-01-12 14:15:00,17.6,-1.5,24.95,SSE,161,1.0,4.0,42,0.00,,,-99.99,FreeWX 2.04,2013-01-12 21:15:00,
2013-01-12 14:20:00,17.4,-2.2,24.95,SSE,161,2.0,3.6,41,0.00,,,-99.99,FreeWX 2.04,2013-01-12 21:20:00,
2013-01-12 14:25:00,17.2,-2.4,24.95,SSE,161,1.0,3.1,41,0.00,,,-99.99,FreeWX 2.04,2013-01-12 21:25:00,
2013-01-12 14:30:00,16.7,-2.9,24.95,SSE,161,2.0,3.6,41,0.00,,,-99.99,FreeWX 2.04,2013-01-12 21:30:00,
2013-01-12 14:35:00,16.9,-2.7,24.95,SSE,161,2.0,3.1,41,0.00,,,-99.99,FreeWX 2.04,2013-01-12 21:35:00,
2013-01-12 14:41:00,17.6,-2.0,24.95,SSE,161,1.0,3.1,41,0.00,,,-99.99,FreeWX 2.04,2013-01-12 21:41:00,
2013-01-12 14:46:00,19.0,-0.8,24.95,North,-999,0.0,2.7,41,0.00,,,-99.99,FreeWX 2.04,2013-01-12 21:46:00,
2013-01-12 14:51:00,19.2,-1.1,24.95,North,-999,0.0,0.0,40,0.00,,,-99.99,FreeWX 2.04,2013-01-12 21:51:00,
2013-01-12 14:56:00,18.9,-2.0,24.95,North,-999,0.0,3.1,39,0.00,,,-99.99,FreeWX 2.04,2013-01-12 21:56:00,
2013-01-12 15:01:00,19.2,-2.2,24.95,North,-999,0.0,3.6,38,0.00,,,-99.99,FreeWX 2.04,2013-01-12 22:01:00,
2013-01-12 15:06:00,19.6,-1.8,24.95,SSE,161,1.0,3.6,38,0.00,,,-99.99,FreeWX 2.04,2013-01-12 22:06:00,
2013-01-12 15:11:00,18.1,-3.1,24.95,SSE,161,2.0,4.9,38,0.00,,,-99.99,FreeWX 2.04,2013-01-12 22:11:00,
2013-01-12 15:16:00,16.9,-3.3,24.95,South,183,4.0,7.4,40,0.00,,,-99.99,FreeWX 2.04,2013-01-12 22:16:00,
2013-01-12 15:21:00,16.7,-2.9,24.95,SW,232,5.0,6.9,41,0.00,,,-99.99,FreeWX 2.04,2013-01-12 22:21:00,
2013-01-12 15:26:00,16.9,-3.3,24.95,WSW,241,6.0,8.7,40,0.00,,,-99.99,FreeWX 2.04,2013-01-12 22:26:00,
2013-01-12 15:31:00,15.8,-3.1,24.98,SSW,197,6.0,10.1,42,0.00,,,-99.99,FreeWX 2.04,2013-01-12 22:31:00,
2013-01-12 15:36:00,15.6,-2.9,24.98,SSE,163,6.0,8.3,43,0.00,,,-99.99,FreeWX 2.04,2013-01-12 22:36:00,
2013-01-12 15:41:00,15.3,-2.7,24.98,SSE,155,6.0,8.3,44,0.00,,,-99.99,FreeWX 2.04,2013-01-12 22:41:00,
2013-01-12 15:46:00,15.6,-2.4,24.95,SSE,161,6.0,7.8,44,0.00,,,-99.99,FreeWX 2.04,2013-01-12 22:46:00,
2013-01-12 15:51:00,15.3,-2.7,24.95,SSE,168,5.0,7.4,44,0.00,,,-99.99,FreeWX 2.04,2013-01-12 22:51:00,
2013-01-12 15:56:00,15.6,-2.4,24.95,SSE,166,5.0,6.7,44,0.00,,,-99.99,FreeWX 2.04,2013-01-12 22:56:00,
2013-01-12 16:01:00,15.4,-2.6,24.98,SSE,157,5.0,6.7,44,0.00,,,-99.99,FreeWX 2.04,2013-01-12 23:01:00,
2013-01-12 16:06:00,16.0,-2.0,24.98,SE,146,4.0,5.4,44,0.00,,,-99.99,FreeWX 2.04,2013-01-12 23:06:00,
2013-01-12 16:11:00,16.3,-2.2,24.98,SE,134,4.0,5.8,43,0.00,,,-99.99,FreeWX 2.04,2013-01-12 23:11:00,
2013-01-12 16:16:00,16.5,-2.6,24.95,SE,128,3.0,4.5,42,0.00,,,-99.99,FreeWX 2.04,2013-01-12 23:16:00,
2013-01-12 16:21:00,16.2,-2.9,24.95,SE,128,3.0,3.6,42,0.00,,,-99.99,FreeWX 2.04,2013-01-12 23:21:00,
2013-01-12 16:26:00,14.7,-4.2,24.95,SE,128,2.0,3.6,42,0.00,,,-99.99,FreeWX 2.04,2013-01-12 23:26:00,
2013-01-12 16:31:00,14.2,-4.7,24.95,SE,128,1.0,3.1,42,0.00,,,-99.99,FreeWX 2.04,2013-01-12 23:31:00,
2013-01-12 16:36:00,13.6,-99.9,24.95,North,-999,0.0,2.7,-999,0.00,,,-99.99,FreeWX 2.04,2013-01-12 23:36:00,
2013-01-12 16:41:00,13.1,-99.9,24.95,North,-999,0.0,2.7,-999,0.00,,,-99.99,FreeWX 2.04,2013-01-12 23:41:00,
2013-01-12 16:46:00,12.6,-99.9,24.95,North,-999,0.0,2.7,-999,0.00,,,-99.99,FreeWX 2.04,2013-01-12 23:46:00,
2013-01-12 16:51:00,12.0,-99.9,24.95,North,-999,0.0,2.7,-999,0.00,,,-99.99,FreeWX 2.04,2013-01-12 23:51:00,
2013-01-12 16:56:00,11.5,-99.9,24.95,SE,128,1.0,4.0,-999,0.00,,,-99.99,FreeWX 2.04,2013-01-12 23:56:00,
2013-01-12 17:01:00,11.1,-99.9,24.98,SE,128,3.0,3.6,-999,0.00,,,-99.99,FreeWX 2.04,2013-01-13 00:01:00,
2013-01-12 17:06:00,10.9,-99.9,24.98,SE,128,2.0,3.1,-999,0.00,,,-99.99,FreeWX 2.04,2013-01-13 00:06:00,
2013-01-12 17:11:00,10.2,-99.9,24.98,North,-999,0.0,0.0,-999,0.00,,,-99.99,FreeWX 2.04,2013-01-13 00:11:00,
2013-01-12 17:16:00,10.2,-99.9,24.98,North,-999,0.0,3.6,-999,0.00,,,-99.99,FreeWX 2.04,2013-01-13 00:16:00,
2013-01-12 17:21:00,10.6,-99.9,24.98,SE,128,1.0,3.6,-999,0.00,,,-99.99,FreeWX 2.04,2013-01-13 00:21:00,
2013-01-12 17:26:00,10.9,-99.9,24.98,SE,128,2.0,3.6,-999,0.00,,,-99.99,FreeWX 2.04,2013-01-13 00:26:00,
2013-01-12 17:31:00,10.0,-99.9,24.98,SE,128,2.0,3.6,-999,0.00,,,-99.99,FreeWX 2.04,2013-01-13 00:31:00,
2013-01-12 17:36:00,9.5,-99.9,24.98,SE,128,3.0,4.0,-999,0.00,,,-99.99,FreeWX 2.04,2013-01-13 00:36:00,
2013-01-12 17:41:00,9.0,-99.9,24.98,SE,128,2.0,3.1,-999,0.00,,,-99.99,FreeWX 2.04,2013-01-13 00:41:00,
2013-01-12 17:46:00,8.6,-99.9,24.98,North,-999,0.0,0.0,-999,0.00,,,-99.99,FreeWX 2.04,2013-01-13 00:46:00,
2013-01-12 17:51:00,8.4,-99.9,24.98,North,-999,0.0,0.0,-999,0.00,,,-99.99,FreeWX 2.04,2013-01-13 00:51:00,
2013-01-12 17:56:00,8.4,-99.9,24.98,North,-999,0.0,0.0,-999,0.00,,,-99.99,FreeWX 2.04,2013-01-13 00:56:00,
2013-01-12 18:01:00,8.4,-99.9,24.98,SE,128,1.0,3.6,-999,0.00,,,-99.99,FreeWX 2.04,2013-01-13 01:01:00,
2013-01-12 18:06:00,7.9,-99.9,24.98,SE,128,2.0,3.1,-999,0.00,,,-99.99,FreeWX 2.04,2013-01-13 01:06:00,
2013-01-12 18:11:00,8.1,-99.9,24.98,SE,128,2.0,3.6,-999,0.00,,,-99.99,FreeWX 2.04,2013-01-13 01:11:00,
2013-01-12 18:16:00,8.2,-99.9,24.98,SE,128,2.0,3.6,-999,0.00,,,-99.99,FreeWX 2.04,2013-01-13 01:16:00,
2013-01-12 18:21:00,7.9,-99.9,24.98,SE,128,1.0,3.6,-999,0.00,,,-99.99,FreeWX 2.04,2013-01-13 01:21:00,
2013-01-12 18:26:00,7.5,-99.9,24.98,North,-999,0.0,2.7,-999,0.00,,,-99.99,FreeWX 2.04,2013-01-13 01:26:00,
2013-01-12 18:31:00,7.3,-99.9,24.98,North,-999,0.0,0.0,-999,0.00,,,-99.99,FreeWX 2.04,2013-01-13 01:31:00,
2013-01-12 18:36:00,7.5,-99.9,24.98,North,-999,0.0,0.0,-999,0.00,,,-99.99,FreeWX 2.04,2013-01-13 01:36:00,
2013-01-12 18:41:00,7.7,-99.9,24.98,North,-999,0.0,0.0,-999,0.00,,,-99.99,FreeWX 2.04,2013-01-13 01:41:00,
2013-01-12 18:46:00,7.5,-99.9,24.98,North,-999,0.0,0.0,-999,0.00,,,-99.99,FreeWX 2.04,2013-01-13 01:46:00,
2013-01-12 18:51:00,7.5,-99.9,24.98,North,-999,0.0,0.0,-999,0.00,,,-99.99,FreeWX 2.04,2013-01-13 01:51:00,
2013-01-12 18:56:00,7.5,-99.9,24.98,North,-999,0.0,0.0,-999,0.00,,,-99.99,FreeWX 2.04,2013-01-13 01:56:00,
2013-01-12 19:01:00,7.7,-99.9,24.98,North,-999,0.0,0.0,-999,0.00,,,-99.99,FreeWX 2.04,2013-01-13 02:01:00,
2013-01-12 19:07:00,7.9,-99.9,24.98,North,-999,0.0,2.7,-999,0.00,,,-99.99,FreeWX 2.04,2013-01-13 02:07:00,
2013-01-12 19:12:00,8.2,-99.9,24.98,North,-999,0.0,4.0,-999,0.00,,,-99.99,FreeWX 2.04,2013-01-13 02:12:00,
2013-01-12 19:17:00,8.2,-99.9,24.98,North,-999,0.0,0.0,-999,0.00,,,-99.99,FreeWX 2.04,2013-01-13 02:17:00,
2013-01-12 19:22:00,8.2,-99.9,24.98,North,-999,0.0,2.7,-999,0.00,,,-99.99,FreeWX 2.04,2013-01-13 02:22:00,
2013-01-12 19:27:00,8.1,-99.9,24.98,North,-999,0.0,4.0,-999,0.00,,,-99.99,FreeWX 2.04,2013-01-13 02:27:00,
2013-01-12 19:32:00,7.9,-99.9,24.98,SE,128,1.0,4.0,-999,0.00,,,-99.99,FreeWX 2.04,2013-01-13 02:32:00,
2013-01-12 19:37:00,7.9,-99.9,24.98,SE,128,1.0,3.6,-999,0.00,,,-99.99,FreeWX 2.04,2013-01-13 02:37:00,
2013-01-12 19:42:00,7.7,-99.9,24.98,North,-999,0.0,0.0,-999,0.00,,,-99.99,FreeWX 2.04,2013-01-13 02:42:00,
2013-01-12 19:47:00,7.7,-99.9,24.98,North,-999,0.0,4.0,-999,0.00,,,-99.99,FreeWX 2.04,2013-01-13 02:47:00,
2013-01-12 19:52:00,8.2,-99.9,24.98,SE,128,1.0,4.0,-999,0.00,,,-99.99,FreeWX 2.04,2013-01-13 02:52:00,
2013-01-12 19:57:00,8.4,-99.9,24.98,SE,128,1.0,4.9,-999,0.00,,,-99.99,FreeWX 2.04,2013-01-13 02:57:00,
2013-01-12 20:02:00,8.4,-99.9,24.98,SE,128,1.0,4.0,-999,0.00,,,-99.99,FreeWX 2.04,2013-01-13 03:02:00,
2013-01-12 20:07:00,8.2,-99.9,24.98,North,-999,0.0,0.0,-999,0.00,,,-99.99,FreeWX 2.04,2013-01-13 03:07:00,
2013-01-12 20:12:00,8.4,-99.9,24.98,ESE,117,1.0,5.8,-999,0.00,,,-99.99,FreeWX 2.04,2013-01-13 03:12:00,
2013-01-12 20:17:00,8.2,-99.9,24.98,East,99,3.0,4.9,-999,0.00,,,-99.99,FreeWX 2.04,2013-01-13 03:17:00,
2013-01-12 20:22:00,8.1,-99.9,24.98,East,92,2.0,2.7,-999,0.00,,,-99.99,FreeWX 2.04,2013-01-13 03:22:00,
2013-01-12 20:27:00,8.4,-99.9,24.98,North,-999,0.0,2.7,-999,0.00,,,-99.99,FreeWX 2.04,2013-01-13 03:27:00,
2013-01-12 20:32:00,8.6,-99.9,24.98,North,-999,0.0,3.1,-999,0.00,,,-99.99,FreeWX 2.04,2013-01-13 03:32:00,
2013-01-12 20:37:00,8.8,-99.9,24.98,East,92,1.0,4.5,-999,0.00,,,-99.99,FreeWX 2.04,2013-01-13 03:37:00,
2013-01-12 20:42:00,8.6,-99.9,24.98,East,92,2.0,4.0,-999,0.00,,,-99.99,FreeWX 2.04,2013-01-13 03:42:00,
2013-01-12 20:47:00,8.6,-99.9,24.98,East,96,2.0,6.3,-999,0.00,,,-99.99,FreeWX 2.04,2013-01-13 03:47:00,
2013-01-12 20:52:00,5.9,-99.9,24.98,SE,128,4.0,6.7,-999,0.00,,,-99.99,FreeWX 2.04,2013-01-13 03:52:00,
2013-01-12 20:57:00,4.1,-99.9,24.98,SSE,156,3.0,4.5,-999,0.00,,,-99.99,FreeWX 2.04,2013-01-13 03:57:00,
2013-01-12 21:02:00,3.0,-99.9,24.98,SSE,157,3.0,4.0,-999,0.00,,,-99.99,FreeWX 2.04,2013-01-13 04:02:00,
2013-01-12 21:07:00,3.7,-99.9,24.98,SSE,157,3.0,4.9,-999,0.00,,,-99.99,FreeWX 2.04,2013-01-13 04:07:00,
2013-01-12 21:12:00,3.2,-99.9,24.98,SSE,157,3.0,4.0,-999,0.00,,,-99.99,FreeWX 2.04,2013-01-13 04:12:00,
2013-01-12 21:17:00,3.2,-99.9,24.98,SSE,157,3.0,4.5,-999,0.00,,,-99.99,FreeWX 2.04,2013-01-13 04:17:00,
2013-01-12 21:22:00,3.4,-99.9,24.98,SSE,157,3.0,4.5,-999,0.00,,,-99.99,FreeWX 2.04,2013-01-13 04:22:00,
2013-01-12 21:27:00,3.6,-99.9,24.98,SSE,157,4.0,4.5,-999,0.00,,,-99.99,FreeWX 2.04,2013-01-13 04:27:00,
2013-01-12 21:32:00,3.7,-99.9,24.98,SSE,157,4.0,4.9,-999,0.00,,,-99.99,FreeWX 2.04,2013-01-13 04:32:00,
2013-01-12 21:37:00,4.1,-99.9,24.98,SSE,157,4.0,4.5,-999,0.00,,,-99.99,FreeWX 2.04,2013-01-13 04:37:00,
2013-01-12 21:42:00,3.7,-99.9,24.98,SSE,158,2.0,4.0,-999,0.00,,,-99.99,FreeWX 2.04,2013-01-13 04:42:00,
2013-01-12 21:47:00,3.4,-99.9,24.98,SSE,158,1.0,3.6,-999,0.00,,,-99.99,FreeWX 2.04,2013-01-13 04:47:00,
2013-01-12 21:52:00,3.2,-99.9,24.98,North,-999,0.0,0.0,-999,0.00,,,-99.99,FreeWX 2.04,2013-01-13 04:52:00,
2013-01-12 21:57:00,2.8,-99.9,24.98,North,-999,0.0,0.0,-999,0.00,,,-99.99,FreeWX 2.04,2013-01-13 04:57:00,
2013-01-12 22:07:00,1.9,-99.9,24.98,North,-999,0.0,0.0,-999,0.00,,,-99.99,FreeWX 2.04,2013-01-13 05:07:00,
2013-01-12 22:12:00,2.5,-99.9,24.98,North,-999,0.0,0.0,-999,0.00,,,-99.99,FreeWX 2.04,2013-01-13 05:12:00,
2013-01-12 22:17:00,2.5,-99.9,25.01,North,-999,0.0,0.0,-999,0.00,,,-99.99,FreeWX 2.04,2013-01-13 05:17:00,
2013-01-12 22:22:00,2.3,-99.9,25.01,North,-999,0.0,0.0,-999,0.00,,,-99.99,FreeWX 2.04,2013-01-13 05:22:00,
2013-01-12 22:27:00,2.5,-99.9,25.01,North,-999,0.0,0.0,-999,0.00,,,-99.99,FreeWX 2.04,2013-01-13 05:27:00,
2013-01-12 22:32:00,2.8,-99.9,25.01,North,-999,0.0,0.0,-999,0.00,,,-99.99,FreeWX 2.04,2013-01-13 05:32:00,
2013-01-12 22:37:00,3.0,-99.9,25.01,North,-999,0.0,0.0,-999,0.00,,,-99.99,FreeWX 2.04,2013-01-13 05:37:00,
2013-01-12 22:42:00,3.2,-99.9,25.01,North,-999,0.0,0.0,-999,0.00,,,-99.99,FreeWX 2.04,2013-01-13 05:42:00,
2013-01-12 22:47:00,2.7,-99.9,25.01,North,-999,0.0,0.0,-999,0.00,,,-99.99,FreeWX 2.04,2013-01-13 05:47:00,
2013-01-12 22:52:00,2.3,-99.9,25.01,North,-999,0.0,0.0,-999,0.00,,,-99.99,FreeWX 2.04,2013-01-13 05:52:00,
2013-01-12 22:57:00,2.5,-99.9,25.01,North,-999,0.0,0.0,-999,0.00,,,-99.99,FreeWX 2.04,2013-01-13 05:57:00,
2013-01-12 23:03:00,2.5,-99.9,25.01,North,-999,0.0,0.0,-999,0.00,,,-99.99,FreeWX 2.04,2013-01-13 06:03:00,
2013-01-12 23:08:00,2.5,-99.9,25.01,North,-999,0.0,3.6,-999,0.00,,,-99.99,FreeWX 2.04,2013-01-13 06:08:00,
2013-01-12 23:13:00,2.5,-99.9,25.01,North,-999,0.0,0.0,-999,0.00,,,-99.99,FreeWX 2.04,2013-01-13 06:13:00,
2013-01-12 23:18:00,2.5,-99.9,25.01,North,-999,0.0,0.0,-999,0.00,,,-99.99,FreeWX 2.04,2013-01-13 06:18:00,
2013-01-12 23:23:00,2.3,-99.9,25.01,North,-999,0.0,0.0,-999,0.00,,,-99.99,FreeWX 2.04,2013-01-13 06:23:00,
2013-01-12 23:28:00,2.5,-99.9,25.01,North,-999,0.0,0.0,-999,0.00,,,-99.99,FreeWX 2.04,2013-01-13 06:28:00,
2013-01-12 23:33:00,4.3,-99.9,25.01,North,-999,0.0,0.0,-999,0.00,,,-99.99,FreeWX 2.04,2013-01-13 06:33:00,
2013-01-12 23:38:00,2.8,-99.9,25.01,SE,142,1.0,4.9,-999,0.00,,,-99.99,FreeWX 2.04,2013-01-13 06:38:00,
2013-01-12 23:43:00,2.8,-99.9,25.01,ESE,110,1.0,3.1,-999,0.00,,,-99.99,FreeWX 2.04,2013-01-13 06:43:00,
2013-01-12 23:48:00,2.5,-99.9,25.01,North,-999,0.0,4.0,-999,0.00,,,-99.99,FreeWX 2.04,2013-01-13 06:48:00,
2013-01-12 23:53:00,3.7,-99.9,25.01,North,-999,0.0,3.1,-999,0.00,,,-99.99,FreeWX 2.04,2013-01-13 06:53:00,
2013-01-12 23:58:00,4.1,-99.9,25.01,North,-999,0.0,0.0,-999,0.00,,,-99.99,FreeWX 2.04,2013-01-13 06:58:00,